Regional Weather Roundup
Issued by NWS Sterling, VA

Home | Current Version | Previous Version | Text Only | Print | Product List | Glossary Off
Versions: 1 2 3 4 5 6 7 8 9 10 11 12 13 14 15 16 17 18 19 20 21 22 23 24 25 26 27

000
ASUS41 KLWX 200210
RWRLWX

REGIONAL WEATHER ROUNDUP
NATIONAL WEATHER SERVICE BALTIMORE MD/WASHINGTON DC
900 PM EST THU JAN 19 2017

Note: "FAIR" indicates few or no clouds below 12,000 feet
with no significant weather and/or obstructions to visibility.
 TC=TEMPERATURE CELSIUS

 * =Non NWS site. Station does not report precipitation (e.g. rain,
    snow, etc.), thunder, or fog.

DCZ001-MDZ009-015-VAZ040>042-051-053>054-200300-
WASHINGTON METRO

CITY           SKY/WX    TMP DP  RH WIND       PRES   REMARKS
WASHINGTON NAT CLOUDY    42  39  89 S3        30.04S
DULLES         CLOUDY    35  32  88 CALM      30.02F
ANDREWS AFB    CLOUDY    36  33  89 CALM      30.02S
FT BELVOIR     CLOUDY    36  34  91 CALM      30.03S
QUANTICO       CLEAR     38  37  97 NW5       30.04F
COLLEGE PARK*  CLOUDY    36  34  93 CALM      30.03S
LEESBURG*      PTCLDY    36  36 100 MISG      30.03S
MANASSAS*      CLEAR    N/A N/A N/A CALM      30.03
GAITHERSBURG*  CLOUDY    34  28  80 CALM      30.06S

$$

MDZ006>007-011-014-200300-
BALTIMORE METRO

CITY           SKY/WX    TMP DP  RH WIND       PRES   REMARKS
BWI AIRPORT    CLOUDY    38  35  89 W3        30.03S
MD SCIENCE CTR   N/A     45  35  68 MISG      30.03R
MARTIN STATE   CLEAR     39  37  93 CALM      30.05S
ANNAPOLIS      CLOUDY    40  35  83 CALM      30.03S
FORT MEADE*    CLOUDY    32  32 100 CALM      30.05F

$$

MDZ012-015-019>023-200300-
MARYLAND EASTERN SHORE

CITY           SKY/WX    TMP DP  RH WIND       PRES   REMARKS
OCEAN CITY     CLOUDY    36  36 100 CALM      30.05S FOG
SALISBURY      CLOUDY    36  34  92 CALM      30.04F
BAY BRIDGE AP* CLOUDY    37  36  93 CALM      30.04S
CAMBRIDGE*     CLOUDY    34  34 100 CALM      30.04S
EASTON*        CLEAR     37  34  87 CALM      30.07F

$$

MDZ017>025-200300-
SOUTHERN MARYLAND

CITY           SKY/WX    TMP DP  RH WIND       PRES   REMARKS
PATUXENT RIVER MOCLDY    34  33  96 CALM      30.04S
ST INIGOES     CLEAR     36  34  92 CALM      30.04S
LEONARDTOWN*   CLEAR     37  34  87 CALM      30.05S

$$

MDZ003>005-200300-
NORTH CENTRAL MARYLAND

CITY           SKY/WX    TMP DP  RH WIND       PRES   REMARKS
FREDERICK*     CLOUDY    32  32 100 CALM      30.05
HAGERSTOWN APT CLOUDY    41  32  70 E6        30.00F
WESTMINSTER*   PTCLDY    36  34  93 CALM      30.01S

$$

MDZ501>502-200300-
WESTERN MARYLAND

CITY           SKY/WX    TMP DP  RH WIND       PRES   REMARKS
OAKLAND*         N/A     37  32  81 SE10      29.92F
CUMBERLAND*    CLOUDY    37  36  93 CALM      30.02F

$$

VAZ025>031-200300-
SHENANDOAH VALLEY

CITY           SKY/WX    TMP DP  RH WIND       PRES   REMARKS
WINCHESTER*    CLOUDY    32  32 100 CALM      30.00S
FRONT ROYAL*   CLOUDY    37  36  93 CALM      29.99F
LURAY*         PTCLDY    41  39  93 CALM      29.98F
NEW MARKET*    PTCLDY    38  36  91 CALM      29.98F
STAUNTON*      PTCLDY    40  38  89 CALM      29.98F
WAYNESBORO*    PTCLDY    44  38  78 CALM      29.97F

$$

WVZ021-048>050-054>055-200300-
EASTERN WEST VIRGINIA PANHANDLE

CITY           SKY/WX    TMP DP  RH WIND       PRES   REMARKS
MARTINSBURG    PTCLDY    32  29  88 CALM      30.01S
PETERSBURG*    CLOUDY    38  37  94 CALM      29.99S

$$

VAZ036>039-050-200300-
CENTRAL FOOTHILLS

CITY           SKY/WX    TMP DP  RH WIND       PRES   REMARKS
CHARLOTTESVILL CLOUDY    47  39  74 CALM      29.99F
CULPEPER*      MOCLDY    37  36  96 CALM      30.02F
ORANGE*          N/A     41  41 100 CALM      30.02F
GORDONSVILLE*  CLOUDY    41  39  92 CALM      30.00F
WARRENTON*     MOCLDY    34  32  91 CALM      30.01F

$$

VAZ055>057-200300-
NORTH AND CENTRAL PIEDMONT

CITY           SKY/WX    TMP DP  RH WIND       PRES   REMARKS
FREDERICKSBRG* PTCLDY    39  37  92 CALM      30.02F
STAFFORD*      PTCLDY    34  34 100 CALM      30.06F

$$

NCZ024-NYZ072-PAZ021-071-VAZ022-071-200300-
OTHER REGIONAL OBSERVATIONS

CITY           SKY/WX    TMP DP  RH WIND       PRES   REMARKS
NEW YORK CITY  MOCLDY    42  32  67 CALM      30.05F
PHILADELPHIA   CLOUDY    42  34  73 CALM      30.04R
PITTSBURGH     CLOUDY    35  33  92 VRB3      29.94F
ROANOKE        PTCLDY    50  38  63 CALM      29.99F
RICHMOND       CLOUDY    41  38  89 E6        30.01F
RALEIGH        MOCLDY    49  40  71 CALM      30.00F

$$

ANZ530>537-200300-
MARINE OBSERVATIONS

STATION/POSITION TIME  TEMP    WIND        PRES
                       AIR SEA DIR/SP/G
                 (UTC) (F)     (DEG/KT/KT) (MB)
THOMAS PT LIGHT  0200   43 40  220/  8/  8   N/A
BALT KEY BRIDGE  0142   42      90/  4/  5 1017.1R
COVE POINT       0142   44     200/  3/  4 1017.7R
LEWISETTA        0142   42 44  230/  4/  4 1016.9F
SOLOMONS ISLAND  0142   39 41   30/  1/  1   N/A
PINEY POINT      0148           CALM  /  1   N/A

$$





USA.gov is the U.S. government's official web portal to all federal, state and local government web resources and services.